Zurück zum Katalog

CMS 03

AktivKommunikationGEO
NORAD 66311·PAYLOAD·🇮🇳 India

Gestartet Nov 2, 2025 von Satish Dhawan Space Centre

Loading…

TLE

AktuellSource: Space-Track

Epoche: Sep 14, 2026, 14:09 UTC

1 66311U 25249B   26257.58974774 -.00000085  00000-0  00000-0 0  9996
2 66311   0.0531 267.3053 0000761 221.1687 151.3704  1.00272381  3249

Verfolge CMS 03 in Echtzeit mit AllMySat

Download on the App Store